CZ-6A DEB, 56662

Orbit data source: Space-Track

CZ-6A DEB, 56662 is space debris in SSO originally from a launch on Fri, 11 Nov 2022 UTC launched from the Taiyaun Space Center, China (TSC). Debris objects in space refer to the collection of defunct objects orbiting the Earth. Examples of debris include non-operational satellites, rocket bodies, and fragments generated from explosions, collisions, or faulty payload assembly.

Loading next visibility...
Identifier
56662, 2022-151AGN
Orbit
SSO
Country
Flag of CNCN / PRC
Related business
Manufacturer
SAST
Mission
Spacecraft
Bus & Motor
Unknown
Mass
Unknown
Launch date (UTC)
2022-11-11 (3 years ago)
Launch vehicle
Unknown
Launch site
Taiyaun Space Center, China (TSC)
Object type
Payload
Rocket body
Debris
Shape & HBR
Unknown shape, 0.1 m
Radar Cross Section
Small (<0.1 m²)

Expand to show TLE details & history
Last TLE update: 23 hours ago

TLE from 23 hours ago
0 CZ-6A DEB
1 56662U 22151AGN 25348.74091059  .00000466  00000-0  28461-3 0  9993
2 56662  98.8381 345.1788 0067559 176.0542 184.1175 14.09677833140861
Epoch: 2025-12-14T17:46Z
TLE epoch observation values (Epoch: 2025-12-14T17:46:54.674Z)
Latitude
-0.00005°
Longitude
-5.19848°
Altitude
912.159 km
Speed
7.371 km/s
True Right ascension
23h 00m 42s
True Declination
0° 00' 00"
Sunlit
Object was in daylight at epoch
Visualization orbit readout
Latitude
Unknown
Longitude
Unknown
Altitude
Unknown
Speed
Unknown
Apparent Right ascension
Unknown
Apparent Declination
Unknown
Sunlit
N/A
Visualization observer readout
Local Sidereal Time
15:09:08
Azimuth
Unknown
Elevation
Unknown
Doppler factor
Unknown
Orbital elements
Apogee altitude
906.537 km
Perigee altitude
808.768 km
Semi-major axis
7,235.79 km
Eccentricity
0.00676
Inclination
98.8381°
RAAN
345.1788°
Arg. of periapsis
176.0542°
True anomaly
184.06238°
Mean anomaly
184.1175°
Eccentric anomaly
184.08989°
Mean motion
3.52626 °/min
Orbital period
102.09 mins
BSTAR
0.00028461
Loading maneuver chart data...
Computing Atmospheric mass density...
Loading historical data...
Loading historical data...
Loading historical data...
Loading historical data...
Loading historical data...
Loading historical data...
Loading historical data...

Documentation

Showing up to 5 results
|